Index of /20260428/WXO-DD/model_gdps/15km/00/102
Name Last modified Size Description
Parent Directory -
20260428T00Z_MSC_GDPS_AbsoluteVorticity_IsbL-0200_LatLon0.15_PT102H.grib2 2026-04-28 04:29 1.5M
20260428T00Z_MSC_GDPS_AbsoluteVorticity_IsbL-0250_LatLon0.15_PT102H.grib2 2026-04-28 04:29 1.3M
20260428T00Z_MSC_GDPS_AbsoluteVorticity_IsbL-0500_LatLon0.15_PT102H.grib2 2026-04-28 04:29 1.4M
20260428T00Z_MSC_GDPS_AbsoluteVorticity_IsbL-0700_LatLon0.15_PT102H.grib2 2026-04-28 04:29 1.6M
20260428T00Z_MSC_GDPS_AbsoluteVorticity_IsbL-0850_LatLon0.15_PT102H.grib2 2026-04-28 04:29 1.6M
20260428T00Z_MSC_GDPS_AirTemp-Max_AGL-2m_LatLon0.15_PT102H.grib2 2026-04-28 04:29 743K
20260428T00Z_MSC_GDPS_AirTemp-Min_AGL-2m_LatLon0.15_PT102H.grib2 2026-04-28 04:29 786K
20260428T00Z_MSC_GDPS_AirTemp_AGL-120m_LatLon0.15_PT102H.grib2 2026-04-28 04:29 905K
20260428T00Z_MSC_GDPS_AirTemp_AGL-2m_LatLon0.15_PT102H.grib2 2026-04-28 04:29 1.0M
20260428T00Z_MSC_GDPS_AirTemp_AGL-40m_LatLon0.15_PT102H.grib2 2026-04-28 04:29 808K
20260428T00Z_MSC_GDPS_AirTemp_AGL-80m_LatLon0.15_PT102H.grib2 2026-04-28 04:29 797K
20260428T00Z_MSC_GDPS_AirTemp_IsbL-0001_LatLon0.15_PT102H.grib2 2026-04-28 04:29 711K
20260428T00Z_MSC_GDPS_AirTemp_IsbL-0005_LatLon0.15_PT102H.grib2 2026-04-28 04:29 684K
20260428T00Z_MSC_GDPS_AirTemp_IsbL-0010_LatLon0.15_PT102H.grib2 2026-04-28 04:29 753K
20260428T00Z_MSC_GDPS_AirTemp_IsbL-0020_LatLon0.15_PT102H.grib2 2026-04-28 04:29 779K
20260428T00Z_MSC_GDPS_AirTemp_IsbL-0030_LatLon0.15_PT102H.grib2 2026-04-28 04:29 741K
20260428T00Z_MSC_GDPS_AirTemp_IsbL-0050_LatLon0.15_PT102H.grib2 2026-04-28 04:29 795K
20260428T00Z_MSC_GDPS_AirTemp_IsbL-0100_LatLon0.15_PT102H.grib2 2026-04-28 04:29 1.0M
20260428T00Z_MSC_GDPS_AirTemp_IsbL-0150_LatLon0.15_PT102H.grib2 2026-04-28 04:29 961K
20260428T00Z_MSC_GDPS_AirTemp_IsbL-0175_LatLon0.15_PT102H.grib2 2026-04-28 04:29 947K
20260428T00Z_MSC_GDPS_AirTemp_IsbL-0200_LatLon0.15_PT102H.grib2 2026-04-28 04:29 961K
20260428T00Z_MSC_GDPS_AirTemp_IsbL-0225_LatLon0.15_PT102H.grib2 2026-04-28 04:29 1.0M
20260428T00Z_MSC_GDPS_AirTemp_IsbL-0250_LatLon0.15_PT102H.grib2 2026-04-28 04:29 1.0M
20260428T00Z_MSC_GDPS_AirTemp_IsbL-0275_LatLon0.15_PT102H.grib2 2026-04-28 04:29 1.0M
20260428T00Z_MSC_GDPS_AirTemp_IsbL-0300_LatLon0.15_PT102H.grib2 2026-04-28 04:29 933K
20260428T00Z_MSC_GDPS_AirTemp_IsbL-0350_LatLon0.15_PT102H.grib2 2026-04-28 04:29 918K
20260428T00Z_MSC_GDPS_AirTemp_IsbL-0400_LatLon0.15_PT102H.grib2 2026-04-28 04:29 933K
20260428T00Z_MSC_GDPS_AirTemp_IsbL-0450_LatLon0.15_PT102H.grib2 2026-04-28 04:29 955K
20260428T00Z_MSC_GDPS_AirTemp_IsbL-0500_LatLon0.15_PT102H.grib2 2026-04-28 04:29 757K
20260428T00Z_MSC_GDPS_AirTemp_IsbL-0550_LatLon0.15_PT102H.grib2 2026-04-28 04:29 790K
20260428T00Z_MSC_GDPS_AirTemp_IsbL-0600_LatLon0.15_PT102H.grib2 2026-04-28 04:29 883K
20260428T00Z_MSC_GDPS_AirTemp_IsbL-0650_LatLon0.15_PT102H.grib2 2026-04-28 04:29 915K
20260428T00Z_MSC_GDPS_AirTemp_IsbL-0700_LatLon0.15_PT102H.grib2 2026-04-28 04:29 944K
20260428T00Z_MSC_GDPS_AirTemp_IsbL-0750_LatLon0.15_PT102H.grib2 2026-04-28 04:29 1.0M
20260428T00Z_MSC_GDPS_AirTemp_IsbL-0800_LatLon0.15_PT102H.grib2 2026-04-28 04:29 1.1M
20260428T00Z_MSC_GDPS_AirTemp_IsbL-0850_LatLon0.15_PT102H.grib2 2026-04-28 04:29 1.1M
20260428T00Z_MSC_GDPS_AirTemp_IsbL-0875_LatLon0.15_PT102H.grib2 2026-04-28 04:29 1.2M
20260428T00Z_MSC_GDPS_AirTemp_IsbL-0900_LatLon0.15_PT102H.grib2 2026-04-28 04:29 1.1M
20260428T00Z_MSC_GDPS_AirTemp_IsbL-0925_LatLon0.15_PT102H.grib2 2026-04-28 04:29 1.1M
20260428T00Z_MSC_GDPS_AirTemp_IsbL-0950_LatLon0.15_PT102H.grib2 2026-04-28 04:29 1.1M
20260428T00Z_MSC_GDPS_AirTemp_IsbL-0970_LatLon0.15_PT102H.grib2 2026-04-28 04:29 1.2M
20260428T00Z_MSC_GDPS_AirTemp_IsbL-0985_LatLon0.15_PT102H.grib2 2026-04-28 04:29 1.1M
20260428T00Z_MSC_GDPS_AirTemp_IsbL-1000_LatLon0.15_PT102H.grib2 2026-04-28 04:29 1.1M
20260428T00Z_MSC_GDPS_AirTemp_IsbL-1015_LatLon0.15_PT102H.grib2 2026-04-28 04:29 1.1M
20260428T00Z_MSC_GDPS_Albedo_Sfc_LatLon0.15_PT102H.grib2 2026-04-28 04:29 243K
20260428T00Z_MSC_GDPS_CAPE_Sfc_LatLon0.15_PT102H.grib2 2026-04-28 04:29 4.1M
20260428T00Z_MSC_GDPS_CIN_Sfc_LatLon0.15_PT102H.grib2 2026-04-28 04:29 2.9M
20260428T00Z_MSC_GDPS_CloudWater_EAtm_LatLon0.15_PT102H.grib2 2026-04-28 04:29 533K
20260428T00Z_MSC_GDPS_ConvectivePrecip-Accum_Sfc_LatLon0.15_PT102H.grib2 2026-04-28 04:29 3.4M
20260428T00Z_MSC_GDPS_DewPointDepression_AGL-2m_LatLon0.15_PT102H.grib2 2026-04-28 04:29 764K
20260428T00Z_MSC_GDPS_DewPointDepression_IsbL-0010_LatLon0.15_PT102H.grib2 2026-04-28 04:29 57K
20260428T00Z_MSC_GDPS_DewPointDepression_IsbL-0020_LatLon0.15_PT102H.grib2 2026-04-28 04:29 62K
20260428T00Z_MSC_GDPS_DewPointDepression_IsbL-0030_LatLon0.15_PT102H.grib2 2026-04-28 04:29 71K
20260428T00Z_MSC_GDPS_DewPointDepression_IsbL-0050_LatLon0.15_PT102H.grib2 2026-04-28 04:29 369K
20260428T00Z_MSC_GDPS_DewPointDepression_IsbL-0100_LatLon0.15_PT102H.grib2 2026-04-28 04:29 401K
20260428T00Z_MSC_GDPS_DewPointDepression_IsbL-0150_LatLon0.15_PT102H.grib2 2026-04-28 04:29 459K
20260428T00Z_MSC_GDPS_DewPointDepression_IsbL-0175_LatLon0.15_PT102H.grib2 2026-04-28 04:29 569K
20260428T00Z_MSC_GDPS_DewPointDepression_IsbL-0200_LatLon0.15_PT102H.grib2 2026-04-28 04:29 685K
20260428T00Z_MSC_GDPS_DewPointDepression_IsbL-0225_LatLon0.15_PT102H.grib2 2026-04-28 04:29 782K
20260428T00Z_MSC_GDPS_DewPointDepression_IsbL-0250_LatLon0.15_PT102H.grib2 2026-04-28 04:29 859K
20260428T00Z_MSC_GDPS_DewPointDepression_IsbL-0275_LatLon0.15_PT102H.grib2 2026-04-28 04:29 868K
20260428T00Z_MSC_GDPS_DewPointDepression_IsbL-0300_LatLon0.15_PT102H.grib2 2026-04-28 04:29 906K
20260428T00Z_MSC_GDPS_DewPointDepression_IsbL-0350_LatLon0.15_PT102H.grib2 2026-04-28 04:29 932K
20260428T00Z_MSC_GDPS_DewPointDepression_IsbL-0400_LatLon0.15_PT102H.grib2 2026-04-28 04:29 973K
20260428T00Z_MSC_GDPS_DewPointDepression_IsbL-0450_LatLon0.15_PT102H.grib2 2026-04-28 04:29 1.0M
20260428T00Z_MSC_GDPS_DewPointDepression_IsbL-0500_LatLon0.15_PT102H.grib2 2026-04-28 04:29 1.0M
20260428T00Z_MSC_GDPS_DewPointDepression_IsbL-0550_LatLon0.15_PT102H.grib2 2026-04-28 04:29 1.0M
20260428T00Z_MSC_GDPS_DewPointDepression_IsbL-0600_LatLon0.15_PT102H.grib2 2026-04-28 04:29 1.1M
20260428T00Z_MSC_GDPS_DewPointDepression_IsbL-0650_LatLon0.15_PT102H.grib2 2026-04-28 04:29 1.1M
20260428T00Z_MSC_GDPS_DewPointDepression_IsbL-0700_LatLon0.15_PT102H.grib2 2026-04-28 04:29 1.1M
20260428T00Z_MSC_GDPS_DewPointDepression_IsbL-0750_LatLon0.15_PT102H.grib2 2026-04-28 04:29 1.1M
20260428T00Z_MSC_GDPS_DewPointDepression_IsbL-0800_LatLon0.15_PT102H.grib2 2026-04-28 04:29 1.2M
20260428T00Z_MSC_GDPS_DewPointDepression_IsbL-0850_LatLon0.15_PT102H.grib2 2026-04-28 04:29 1.2M
20260428T00Z_MSC_GDPS_DewPointDepression_IsbL-0875_LatLon0.15_PT102H.grib2 2026-04-28 04:29 1.1M
20260428T00Z_MSC_GDPS_DewPointDepression_IsbL-0900_LatLon0.15_PT102H.grib2 2026-04-28 04:29 1.1M
20260428T00Z_MSC_GDPS_DewPointDepression_IsbL-0925_LatLon0.15_PT102H.grib2 2026-04-28 04:29 1.0M
20260428T00Z_MSC_GDPS_DewPointDepression_IsbL-0950_LatLon0.15_PT102H.grib2 2026-04-28 04:29 1.0M
20260428T00Z_MSC_GDPS_DewPointDepression_IsbL-0970_LatLon0.15_PT102H.grib2 2026-04-28 04:29 1.0M
20260428T00Z_MSC_GDPS_DewPointDepression_IsbL-0985_LatLon0.15_PT102H.grib2 2026-04-28 04:29 1.0M
20260428T00Z_MSC_GDPS_DewPointDepression_IsbL-1000_LatLon0.15_PT102H.grib2 2026-04-28 04:29 1.0M
20260428T00Z_MSC_GDPS_DewPointDepression_IsbL-1015_LatLon0.15_PT102H.grib2 2026-04-28 04:29 914K
20260428T00Z_MSC_GDPS_DewPoint_AGL-2m_LatLon0.15_PT102H.grib2 2026-04-28 04:29 603K
20260428T00Z_MSC_GDPS_DownwardLongwaveRadiationFlux-Accum_Sfc_LatLon0.15_PT102H.grib2 2026-04-28 04:29 770K
20260428T00Z_MSC_GDPS_DownwardShortwaveRadiationFlux-Accum_NTAtm_LatLon0.15_PT102H.grib2 2026-04-28 04:29 274K
20260428T00Z_MSC_GDPS_DownwardShortwaveRadiationFlux-Accum_Sfc_LatLon0.15_PT102H.grib2 2026-04-28 04:29 1.0M
20260428T00Z_MSC_GDPS_FreezingRain-Accum12h_Sfc_LatLon0.15_PT102H.grib2 2026-04-28 04:29 103K
20260428T00Z_MSC_GDPS_FreezingRain-Accum1h_Sfc_LatLon0.15_PT102H.grib2 2026-04-28 04:29 37K
20260428T00Z_MSC_GDPS_FreezingRain-Accum24h_Sfc_LatLon0.15_PT102H.grib2 2026-04-28 04:29 163K
20260428T00Z_MSC_GDPS_FreezingRain-Accum3h_Sfc_LatLon0.15_PT102H.grib2 2026-04-28 04:29 40K
20260428T00Z_MSC_GDPS_FreezingRain-Accum6h_Sfc_LatLon0.15_PT102H.grib2 2026-04-28 04:29 61K
20260428T00Z_MSC_GDPS_FreezingRain-Accum_Sfc_LatLon0.15_PT102H.grib2 2026-04-28 04:29 400K
20260428T00Z_MSC_GDPS_GeopotentialHeight_IsbL-0001_LatLon0.15_PT102H.grib2 2026-04-28 04:29 416K
20260428T00Z_MSC_GDPS_GeopotentialHeight_IsbL-0005_LatLon0.15_PT102H.grib2 2026-04-28 04:29 477K
20260428T00Z_MSC_GDPS_GeopotentialHeight_IsbL-0010_LatLon0.15_PT102H.grib2 2026-04-28 04:29 470K
20260428T00Z_MSC_GDPS_GeopotentialHeight_IsbL-0020_LatLon0.15_PT102H.grib2 2026-04-28 04:29 410K
20260428T00Z_MSC_GDPS_GeopotentialHeight_IsbL-0030_LatLon0.15_PT102H.grib2 2026-04-28 04:29 565K
20260428T00Z_MSC_GDPS_GeopotentialHeight_IsbL-0050_LatLon0.15_PT102H.grib2 2026-04-28 04:29 568K
20260428T00Z_MSC_GDPS_GeopotentialHeight_IsbL-0100_LatLon0.15_PT102H.grib2 2026-04-28 04:29 606K
20260428T00Z_MSC_GDPS_GeopotentialHeight_IsbL-0150_LatLon0.15_PT102H.grib2 2026-04-28 04:29 627K
20260428T00Z_MSC_GDPS_GeopotentialHeight_IsbL-0175_LatLon0.15_PT102H.grib2 2026-04-28 04:29 473K
20260428T00Z_MSC_GDPS_GeopotentialHeight_IsbL-0200_LatLon0.15_PT102H.grib2 2026-04-28 04:29 476K
20260428T00Z_MSC_GDPS_GeopotentialHeight_IsbL-0225_LatLon0.15_PT102H.grib2 2026-04-28 04:29 638K
20260428T00Z_MSC_GDPS_GeopotentialHeight_IsbL-0250_LatLon0.15_PT102H.grib2 2026-04-28 04:29 640K
20260428T00Z_MSC_GDPS_GeopotentialHeight_IsbL-0275_LatLon0.15_PT102H.grib2 2026-04-28 04:29 639K
20260428T00Z_MSC_GDPS_GeopotentialHeight_IsbL-0300_LatLon0.15_PT102H.grib2 2026-04-28 04:29 638K
20260428T00Z_MSC_GDPS_GeopotentialHeight_IsbL-0350_LatLon0.15_PT102H.grib2 2026-04-28 04:29 630K
20260428T00Z_MSC_GDPS_GeopotentialHeight_IsbL-0400_LatLon0.15_PT102H.grib2 2026-04-28 04:29 621K
20260428T00Z_MSC_GDPS_GeopotentialHeight_IsbL-0450_LatLon0.15_PT102H.grib2 2026-04-28 04:29 613K
20260428T00Z_MSC_GDPS_GeopotentialHeight_IsbL-0500_LatLon0.15_PT102H.grib2 2026-04-28 04:29 533K
20260428T00Z_MSC_GDPS_GeopotentialHeight_IsbL-0550_LatLon0.15_PT102H.grib2 2026-04-28 04:29 525K
20260428T00Z_MSC_GDPS_GeopotentialHeight_IsbL-0600_LatLon0.15_PT102H.grib2 2026-04-28 04:29 520K
20260428T00Z_MSC_GDPS_GeopotentialHeight_IsbL-0650_LatLon0.15_PT102H.grib2 2026-04-28 04:29 684K
20260428T00Z_MSC_GDPS_GeopotentialHeight_IsbL-0700_LatLon0.15_PT102H.grib2 2026-04-28 04:29 686K
20260428T00Z_MSC_GDPS_GeopotentialHeight_IsbL-0750_LatLon0.15_PT102H.grib2 2026-04-28 04:29 692K
20260428T00Z_MSC_GDPS_GeopotentialHeight_IsbL-0800_LatLon0.15_PT102H.grib2 2026-04-28 04:29 703K
20260428T00Z_MSC_GDPS_GeopotentialHeight_IsbL-0850_LatLon0.15_PT102H.grib2 2026-04-28 04:29 710K
20260428T00Z_MSC_GDPS_GeopotentialHeight_IsbL-0875_LatLon0.15_PT102H.grib2 2026-04-28 04:29 718K
20260428T00Z_MSC_GDPS_GeopotentialHeight_IsbL-0900_LatLon0.15_PT102H.grib2 2026-04-28 04:29 721K
20260428T00Z_MSC_GDPS_GeopotentialHeight_IsbL-0925_LatLon0.15_PT102H.grib2 2026-04-28 04:29 734K
20260428T00Z_MSC_GDPS_GeopotentialHeight_IsbL-0950_LatLon0.15_PT102H.grib2 2026-04-28 04:29 740K
20260428T00Z_MSC_GDPS_GeopotentialHeight_IsbL-0970_LatLon0.15_PT102H.grib2 2026-04-28 04:29 752K
20260428T00Z_MSC_GDPS_GeopotentialHeight_IsbL-0985_LatLon0.15_PT102H.grib2 2026-04-28 04:29 768K
20260428T00Z_MSC_GDPS_GeopotentialHeight_IsbL-1000_LatLon0.15_PT102H.grib2 2026-04-28 04:29 788K
20260428T00Z_MSC_GDPS_GeopotentialHeight_IsbL-1015_LatLon0.15_PT102H.grib2 2026-04-28 04:29 811K
20260428T00Z_MSC_GDPS_Humidex_Sfc_LatLon0.15_PT102H.grib2 2026-04-28 04:29 5.3M
20260428T00Z_MSC_GDPS_IcePellets-Accum12h_Sfc_LatLon0.15_PT102H.grib2 2026-04-28 04:29 20K
20260428T00Z_MSC_GDPS_IcePellets-Accum1h_Sfc_LatLon0.15_PT102H.grib2 2026-04-28 04:29 10K
20260428T00Z_MSC_GDPS_IcePellets-Accum24h_Sfc_LatLon0.15_PT102H.grib2 2026-04-28 04:29 34K
20260428T00Z_MSC_GDPS_IcePellets-Accum3h_Sfc_LatLon0.15_PT102H.grib2 2026-04-28 04:29 11K
20260428T00Z_MSC_GDPS_IcePellets-Accum6h_Sfc_LatLon0.15_PT102H.grib2 2026-04-28 04:29 14K
20260428T00Z_MSC_GDPS_IcePellets-Accum_Sfc_LatLon0.15_PT102H.grib2 2026-04-28 04:29 102K
20260428T00Z_MSC_GDPS_KIndex_Sfc_LatLon0.15_PT102H.grib2 2026-04-28 04:29 6.4M
20260428T00Z_MSC_GDPS_LatentHeatNetFlux_Sfc_LatLon0.15_PT102H.grib2 2026-04-28 04:29 538K
20260428T00Z_MSC_GDPS_LiftedIndex-MU-VT_IsbL-0500_LatLon0.15_PT102H.grib2 2026-04-28 04:29 5.4M
20260428T00Z_MSC_GDPS_NetLongwaveRadiationFlux-Accum_Sfc_LatLon0.15_PT102H.grib2 2026-04-28 04:29 1.0M
20260428T00Z_MSC_GDPS_NetShortwaveRadiationFlux-Accum_Sfc_LatLon0.15_PT102H.grib2 2026-04-28 04:29 946K
20260428T00Z_MSC_GDPS_O3MixingRatio_LatLon0.15_PT102H.grib2 2026-04-28 04:54 1.9M
20260428T00Z_MSC_GDPS_O3_EAtm_LatLon0.15_PT102H.grib2 2026-04-28 04:54 2.4M
20260428T00Z_MSC_GDPS_PlanetaryBoundaryLayerHeight_Sfc_LatLon0.15_PT102H.grib2 2026-04-28 04:29 2.5M
20260428T00Z_MSC_GDPS_Precip-Accum12h_Sfc_LatLon0.15_PT102H.grib2 2026-04-28 04:29 4.3M
20260428T00Z_MSC_GDPS_Precip-Accum1h_Sfc_LatLon0.15_PT102H.grib2 2026-04-28 04:29 3.2M
20260428T00Z_MSC_GDPS_Precip-Accum24h_Sfc_LatLon0.15_PT102H.grib2 2026-04-28 04:29 4.5M
20260428T00Z_MSC_GDPS_Precip-Accum3h_Sfc_LatLon0.15_PT102H.grib2 2026-04-28 04:29 3.5M
20260428T00Z_MSC_GDPS_Precip-Accum6h_Sfc_LatLon0.15_PT102H.grib2 2026-04-28 04:29 3.9M
20260428T00Z_MSC_GDPS_Precip-Accum_Sfc_LatLon0.15_PT102H.grib2 2026-04-28 04:29 5.0M
20260428T00Z_MSC_GDPS_PrecipRate_Sfc_LatLon0.15_PT102H.grib2 2026-04-28 04:29 2.9M
20260428T00Z_MSC_GDPS_PrecipType-Instant_Sfc_LatLon0.15_PT102H.grib2 2026-04-28 04:29 1.6M
20260428T00Z_MSC_GDPS_Pressure_MSL_LatLon0.15_PT102H.grib2 2026-04-28 04:29 821K
20260428T00Z_MSC_GDPS_Pressure_PVU-1.5_LatLon0.15_PT102H.grib2 2026-04-28 04:29 5.8M
20260428T00Z_MSC_GDPS_Pressure_PVU-1_LatLon0.15_PT102H.grib2 2026-04-28 04:29 6.0M
20260428T00Z_MSC_GDPS_Pressure_PVU-2_LatLon0.15_PT102H.grib2 2026-04-28 04:29 5.6M
20260428T00Z_MSC_GDPS_Pressure_Sfc_LatLon0.15_PT102H.grib2 2026-04-28 04:29 1.1M
20260428T00Z_MSC_GDPS_RadiativeTemp_Sfc_LatLon0.15_PT102H.grib2 2026-04-28 04:29 493K
20260428T00Z_MSC_GDPS_Rain-Accum12h_Sfc_LatLon0.15_PT102H.grib2 2026-04-28 04:29 2.9M
20260428T00Z_MSC_GDPS_Rain-Accum1h_Sfc_LatLon0.15_PT102H.grib2 2026-04-28 04:29 1.6M
20260428T00Z_MSC_GDPS_Rain-Accum24h_Sfc_LatLon0.15_PT102H.grib2 2026-04-28 04:29 3.2M
20260428T00Z_MSC_GDPS_Rain-Accum3h_Sfc_LatLon0.15_PT102H.grib2 2026-04-28 04:29 1.8M
20260428T00Z_MSC_GDPS_Rain-Accum6h_Sfc_LatLon0.15_PT102H.grib2 2026-04-28 04:29 2.4M
20260428T00Z_MSC_GDPS_Rain-Accum_Sfc_LatLon0.15_PT102H.grib2 2026-04-28 04:29 3.9M
20260428T00Z_MSC_GDPS_RelativeHumidity_AGL-2m_LatLon0.15_PT102H.grib2 2026-04-28 04:29 1.0M
20260428T00Z_MSC_GDPS_RelativeHumidity_IsbL-0010_LatLon0.15_PT102H.grib2 2026-04-28 04:29 191K
20260428T00Z_MSC_GDPS_RelativeHumidity_IsbL-0020_LatLon0.15_PT102H.grib2 2026-04-28 04:29 230K
20260428T00Z_MSC_GDPS_RelativeHumidity_IsbL-0030_LatLon0.15_PT102H.grib2 2026-04-28 04:29 260K
20260428T00Z_MSC_GDPS_RelativeHumidity_IsbL-0050_LatLon0.15_PT102H.grib2 2026-04-28 04:29 323K
20260428T00Z_MSC_GDPS_RelativeHumidity_IsbL-0100_LatLon0.15_PT102H.grib2 2026-04-28 04:29 503K
20260428T00Z_MSC_GDPS_RelativeHumidity_IsbL-0150_LatLon0.15_PT102H.grib2 2026-04-28 04:29 662K
20260428T00Z_MSC_GDPS_RelativeHumidity_IsbL-0175_LatLon0.15_PT102H.grib2 2026-04-28 04:29 774K
20260428T00Z_MSC_GDPS_RelativeHumidity_IsbL-0200_LatLon0.15_PT102H.grib2 2026-04-28 04:29 699K
20260428T00Z_MSC_GDPS_RelativeHumidity_IsbL-0225_LatLon0.15_PT102H.grib2 2026-04-28 04:29 782K
20260428T00Z_MSC_GDPS_RelativeHumidity_IsbL-0250_LatLon0.15_PT102H.grib2 2026-04-28 04:29 859K
20260428T00Z_MSC_GDPS_RelativeHumidity_IsbL-0275_LatLon0.15_PT102H.grib2 2026-04-28 04:29 879K
20260428T00Z_MSC_GDPS_RelativeHumidity_IsbL-0300_LatLon0.15_PT102H.grib2 2026-04-28 04:29 919K
20260428T00Z_MSC_GDPS_RelativeHumidity_IsbL-0350_LatLon0.15_PT102H.grib2 2026-04-28 04:29 936K
20260428T00Z_MSC_GDPS_RelativeHumidity_IsbL-0400_LatLon0.15_PT102H.grib2 2026-04-28 04:29 965K
20260428T00Z_MSC_GDPS_RelativeHumidity_IsbL-0450_LatLon0.15_PT102H.grib2 2026-04-28 04:29 1.0M
20260428T00Z_MSC_GDPS_RelativeHumidity_IsbL-0500_LatLon0.15_PT102H.grib2 2026-04-28 04:29 1.0M
20260428T00Z_MSC_GDPS_RelativeHumidity_IsbL-0550_LatLon0.15_PT102H.grib2 2026-04-28 04:29 1.0M
20260428T00Z_MSC_GDPS_RelativeHumidity_IsbL-0600_LatLon0.15_PT102H.grib2 2026-04-28 04:29 1.0M
20260428T00Z_MSC_GDPS_RelativeHumidity_IsbL-0650_LatLon0.15_PT102H.grib2 2026-04-28 04:29 1.1M
20260428T00Z_MSC_GDPS_RelativeHumidity_IsbL-0700_LatLon0.15_PT102H.grib2 2026-04-28 04:29 1.1M
20260428T00Z_MSC_GDPS_RelativeHumidity_IsbL-0750_LatLon0.15_PT102H.grib2 2026-04-28 04:29 1.2M
20260428T00Z_MSC_GDPS_RelativeHumidity_IsbL-0800_LatLon0.15_PT102H.grib2 2026-04-28 04:29 1.3M
20260428T00Z_MSC_GDPS_RelativeHumidity_IsbL-0850_LatLon0.15_PT102H.grib2 2026-04-28 04:29 1.3M
20260428T00Z_MSC_GDPS_RelativeHumidity_IsbL-0875_LatLon0.15_PT102H.grib2 2026-04-28 04:29 1.3M
20260428T00Z_MSC_GDPS_RelativeHumidity_IsbL-0900_LatLon0.15_PT102H.grib2 2026-04-28 04:29 1.2M
20260428T00Z_MSC_GDPS_RelativeHumidity_IsbL-0925_LatLon0.15_PT102H.grib2 2026-04-28 04:29 1.2M
20260428T00Z_MSC_GDPS_RelativeHumidity_IsbL-0950_LatLon0.15_PT102H.grib2 2026-04-28 04:29 1.2M
20260428T00Z_MSC_GDPS_RelativeHumidity_IsbL-0970_LatLon0.15_PT102H.grib2 2026-04-28 04:29 1.2M
20260428T00Z_MSC_GDPS_RelativeHumidity_IsbL-0985_LatLon0.15_PT102H.grib2 2026-04-28 04:29 1.1M
20260428T00Z_MSC_GDPS_RelativeHumidity_IsbL-1000_LatLon0.15_PT102H.grib2 2026-04-28 04:29 1.1M
20260428T00Z_MSC_GDPS_RelativeHumidity_IsbL-1015_LatLon0.15_PT102H.grib2 2026-04-28 04:29 1.0M
20260428T00Z_MSC_GDPS_RelativeVorticity_IsbL-0200_LatLon0.15_PT102H.grib2 2026-04-28 04:29 1.5M
20260428T00Z_MSC_GDPS_RelativeVorticity_IsbL-0250_LatLon0.15_PT102H.grib2 2026-04-28 04:29 1.5M
20260428T00Z_MSC_GDPS_RelativeVorticity_IsbL-0500_LatLon0.15_PT102H.grib2 2026-04-28 04:29 1.4M
20260428T00Z_MSC_GDPS_RelativeVorticity_IsbL-0700_LatLon0.15_PT102H.grib2 2026-04-28 04:29 1.6M
20260428T00Z_MSC_GDPS_RelativeVorticity_IsbL-0850_LatLon0.15_PT102H.grib2 2026-04-28 04:29 1.6M
20260428T00Z_MSC_GDPS_Runoff-Accum_Sfc_LatLon0.15_PT102H.grib2 2026-04-28 04:29 132K
20260428T00Z_MSC_GDPS_SensibleHeatNetFlux_Sfc_LatLon0.15_PT102H.grib2 2026-04-28 04:29 486K
20260428T00Z_MSC_GDPS_ShowalterIndex_IsbL-0500_LatLon0.15_PT102H.grib2 2026-04-28 04:29 6.2M
20260428T00Z_MSC_GDPS_Snow-Accum12h_Sfc_LatLon0.15_PT102H.grib2 2026-04-28 04:29 1.4M
20260428T00Z_MSC_GDPS_Snow-Accum1h_Sfc_LatLon0.15_PT102H.grib2 2026-04-28 04:29 1.1M
20260428T00Z_MSC_GDPS_Snow-Accum24h_Sfc_LatLon0.15_PT102H.grib2 2026-04-28 04:29 1.5M
20260428T00Z_MSC_GDPS_Snow-Accum3h_Sfc_LatLon0.15_PT102H.grib2 2026-04-28 04:29 1.1M
20260428T00Z_MSC_GDPS_Snow-Accum6h_Sfc_LatLon0.15_PT102H.grib2 2026-04-28 04:29 1.4M
20260428T00Z_MSC_GDPS_Snow-Accum_Sfc_LatLon0.15_PT102H.grib2 2026-04-28 04:29 2.1M
20260428T00Z_MSC_GDPS_SnowDensity_Sfc_LatLon0.15_PT102H.grib2 2026-04-28 04:29 268K
20260428T00Z_MSC_GDPS_SnowDepth_Sfc_LatLon0.15_PT102H.grib2 2026-04-28 04:29 1.7M
20260428T00Z_MSC_GDPS_SoilTemp_DBS-0to10cm_LatLon0.15_PT102H.grib2 2026-04-28 04:29 507K
20260428T00Z_MSC_GDPS_SoilTemp_Sfc_LatLon0.15_PT102H.grib2 2026-04-28 04:29 581K
20260428T00Z_MSC_GDPS_SoilVolumetricIceContent_Sfc_LatLon0.15_PT102H.grib2 2026-04-28 04:29 203K
20260428T00Z_MSC_GDPS_SoilVolumetricWaterContent_DBS-0to10cm_LatLon0.15_PT102H.grib2 2026-04-28 04:29 586K
20260428T00Z_MSC_GDPS_SoilVolumetricWaterContent_DBS-0to1cm_LatLon0.15_PT102H.grib2 2026-04-28 04:29 650K
20260428T00Z_MSC_GDPS_SpecificHumidity_AGL-120m_LatLon0.15_PT102H.grib2 2026-04-28 04:29 1.1M
20260428T00Z_MSC_GDPS_SpecificHumidity_AGL-2m_LatLon0.15_PT102H.grib2 2026-04-28 04:29 1.2M
20260428T00Z_MSC_GDPS_SpecificHumidity_AGL-40m_LatLon0.15_PT102H.grib2 2026-04-28 04:29 1.1M
20260428T00Z_MSC_GDPS_SpecificHumidity_AGL-80m_LatLon0.15_PT102H.grib2 2026-04-28 04:29 1.1M
20260428T00Z_MSC_GDPS_SpecificHumidity_IsbL-0001_LatLon0.15_PT102H.grib2 2026-04-28 04:29 1.2M
20260428T00Z_MSC_GDPS_SpecificHumidity_IsbL-0005_LatLon0.15_PT102H.grib2 2026-04-28 04:29 1.1M
20260428T00Z_MSC_GDPS_SpecificHumidity_IsbL-0010_LatLon0.15_PT102H.grib2 2026-04-28 04:29 1.3M
20260428T00Z_MSC_GDPS_SpecificHumidity_IsbL-0020_LatLon0.15_PT102H.grib2 2026-04-28 04:29 1.3M
20260428T00Z_MSC_GDPS_SpecificHumidity_IsbL-0030_LatLon0.15_PT102H.grib2 2026-04-28 04:29 1.3M
20260428T00Z_MSC_GDPS_SpecificHumidity_IsbL-0050_LatLon0.15_PT102H.grib2 2026-04-28 04:29 1.3M
20260428T00Z_MSC_GDPS_SpecificHumidity_IsbL-0100_LatLon0.15_PT102H.grib2 2026-04-28 04:29 1.3M
20260428T00Z_MSC_GDPS_SpecificHumidity_IsbL-0150_LatLon0.15_PT102H.grib2 2026-04-28 04:29 1.3M
20260428T00Z_MSC_GDPS_SpecificHumidity_IsbL-0175_LatLon0.15_PT102H.grib2 2026-04-28 04:29 1.2M
20260428T00Z_MSC_GDPS_SpecificHumidity_IsbL-0200_LatLon0.15_PT102H.grib2 2026-04-28 04:29 1.3M
20260428T00Z_MSC_GDPS_SpecificHumidity_IsbL-0225_LatLon0.15_PT102H.grib2 2026-04-28 04:29 1.3M
20260428T00Z_MSC_GDPS_SpecificHumidity_IsbL-0250_LatLon0.15_PT102H.grib2 2026-04-28 04:29 1.4M
20260428T00Z_MSC_GDPS_SpecificHumidity_IsbL-0275_LatLon0.15_PT102H.grib2 2026-04-28 04:29 1.3M
20260428T00Z_MSC_GDPS_SpecificHumidity_IsbL-0300_LatLon0.15_PT102H.grib2 2026-04-28 04:29 1.2M
20260428T00Z_MSC_GDPS_SpecificHumidity_IsbL-0350_LatLon0.15_PT102H.grib2 2026-04-28 04:29 1.2M
20260428T00Z_MSC_GDPS_SpecificHumidity_IsbL-0400_LatLon0.15_PT102H.grib2 2026-04-28 04:29 1.4M
20260428T00Z_MSC_GDPS_SpecificHumidity_IsbL-0450_LatLon0.15_PT102H.grib2 2026-04-28 04:29 1.6M
20260428T00Z_MSC_GDPS_SpecificHumidity_IsbL-0500_LatLon0.15_PT102H.grib2 2026-04-28 04:29 1.4M
20260428T00Z_MSC_GDPS_SpecificHumidity_IsbL-0550_LatLon0.15_PT102H.grib2 2026-04-28 04:29 1.6M
20260428T00Z_MSC_GDPS_SpecificHumidity_IsbL-0600_LatLon0.15_PT102H.grib2 2026-04-28 04:29 1.7M
20260428T00Z_MSC_GDPS_SpecificHumidity_IsbL-0650_LatLon0.15_PT102H.grib2 2026-04-28 04:29 1.5M
20260428T00Z_MSC_GDPS_SpecificHumidity_IsbL-0700_LatLon0.15_PT102H.grib2 2026-04-28 04:29 1.6M
20260428T00Z_MSC_GDPS_SpecificHumidity_IsbL-0750_LatLon0.15_PT102H.grib2 2026-04-28 04:29 1.7M
20260428T00Z_MSC_GDPS_SpecificHumidity_IsbL-0800_LatLon0.15_PT102H.grib2 2026-04-28 04:29 1.9M
20260428T00Z_MSC_GDPS_SpecificHumidity_IsbL-0850_LatLon0.15_PT102H.grib2 2026-04-28 04:29 1.9M
20260428T00Z_MSC_GDPS_SpecificHumidity_IsbL-0875_LatLon0.15_PT102H.grib2 2026-04-28 04:29 1.9M
20260428T00Z_MSC_GDPS_SpecificHumidity_IsbL-0900_LatLon0.15_PT102H.grib2 2026-04-28 04:29 1.9M
20260428T00Z_MSC_GDPS_SpecificHumidity_IsbL-0925_LatLon0.15_PT102H.grib2 2026-04-28 04:29 1.9M
20260428T00Z_MSC_GDPS_SpecificHumidity_IsbL-0950_LatLon0.15_PT102H.grib2 2026-04-28 04:29 1.6M
20260428T00Z_MSC_GDPS_SpecificHumidity_IsbL-0970_LatLon0.15_PT102H.grib2 2026-04-28 04:29 1.5M
20260428T00Z_MSC_GDPS_SpecificHumidity_IsbL-0985_LatLon0.15_PT102H.grib2 2026-04-28 04:29 1.5M
20260428T00Z_MSC_GDPS_SpecificHumidity_IsbL-1000_LatLon0.15_PT102H.grib2 2026-04-28 04:29 1.5M
20260428T00Z_MSC_GDPS_SpecificHumidity_IsbL-1015_LatLon0.15_PT102H.grib2 2026-04-28 04:29 1.4M
20260428T00Z_MSC_GDPS_SpecificHumidity_Sfc_LatLon0.15_PT102H.grib2 2026-04-28 04:29 668K
20260428T00Z_MSC_GDPS_Thickness_IsbL-0850to0700_LatLon0.15_PT102H.grib2 2026-04-28 04:29 463K
20260428T00Z_MSC_GDPS_Thickness_IsbL-1000to0500_LatLon0.15_PT102H.grib2 2026-04-28 04:29 369K
20260428T00Z_MSC_GDPS_Thickness_IsbL-1000to0850_LatLon0.15_PT102H.grib2 2026-04-28 04:29 486K
20260428T00Z_MSC_GDPS_TotalCloudCover_Sfc_LatLon0.15_PT102H.grib2 2026-04-28 04:29 833K
20260428T00Z_MSC_GDPS_TotalTotalsIndex_Sfc_LatLon0.15_PT102H.grib2 2026-04-28 04:29 6.2M
20260428T00Z_MSC_GDPS_UVIndex-ClearSky_Sfc_LatLon0.15_PT102H.grib2 2026-04-28 04:54 1.1M
20260428T00Z_MSC_GDPS_UVIndex_Sfc_LatLon0.15_PT102H.grib2 2026-04-28 04:54 1.5M
20260428T00Z_MSC_GDPS_UpwardLongwaveRadiationFlux_NTAtm_LatLon0.15_PT102H.grib2 2026-04-28 04:29 832K
20260428T00Z_MSC_GDPS_VerticalVelocity_IsbL-0200_LatLon0.15_PT102H.grib2 2026-04-28 04:29 916K
20260428T00Z_MSC_GDPS_VerticalVelocity_IsbL-0250_LatLon0.15_PT102H.grib2 2026-04-28 04:29 1.1M
20260428T00Z_MSC_GDPS_VerticalVelocity_IsbL-0500_LatLon0.15_PT102H.grib2 2026-04-28 04:29 1.2M
20260428T00Z_MSC_GDPS_VerticalVelocity_IsbL-0600_LatLon0.15_PT102H.grib2 2026-04-28 04:29 1.1M
20260428T00Z_MSC_GDPS_VerticalVelocity_IsbL-0700_LatLon0.15_PT102H.grib2 2026-04-28 04:29 1.2M
20260428T00Z_MSC_GDPS_VerticalVelocity_IsbL-0850_LatLon0.15_PT102H.grib2 2026-04-28 04:29 1.3M
20260428T00Z_MSC_GDPS_WindChill_Sfc_LatLon0.15_PT102H.grib2 2026-04-28 04:29 5.3M
20260428T00Z_MSC_GDPS_WindDir_AGL-10m_LatLon0.15_PT102H.grib2 2026-04-28 04:29 1.3M
20260428T00Z_MSC_GDPS_WindDir_AGL-120m_LatLon0.15_PT102H.grib2 2026-04-28 04:29 1.3M
20260428T00Z_MSC_GDPS_WindDir_AGL-40m_LatLon0.15_PT102H.grib2 2026-04-28 04:29 1.4M
20260428T00Z_MSC_GDPS_WindDir_AGL-80m_LatLon0.15_PT102H.grib2 2026-04-28 04:29 1.3M
20260428T00Z_MSC_GDPS_WindDir_IsbL-0001_LatLon0.15_PT102H.grib2 2026-04-28 04:29 685K
20260428T00Z_MSC_GDPS_WindDir_IsbL-0005_LatLon0.15_PT102H.grib2 2026-04-28 04:29 795K
20260428T00Z_MSC_GDPS_WindDir_IsbL-0010_LatLon0.15_PT102H.grib2 2026-04-28 04:29 840K
20260428T00Z_MSC_GDPS_WindDir_IsbL-0020_LatLon0.15_PT102H.grib2 2026-04-28 04:29 952K
20260428T00Z_MSC_GDPS_WindDir_IsbL-0030_LatLon0.15_PT102H.grib2 2026-04-28 04:29 920K
20260428T00Z_MSC_GDPS_WindDir_IsbL-0050_LatLon0.15_PT102H.grib2 2026-04-28 04:29 932K
20260428T00Z_MSC_GDPS_WindDir_IsbL-0100_LatLon0.15_PT102H.grib2 2026-04-28 04:29 1.0M
20260428T00Z_MSC_GDPS_WindDir_IsbL-0150_LatLon0.15_PT102H.grib2 2026-04-28 04:29 1.0M
20260428T00Z_MSC_GDPS_WindDir_IsbL-0175_LatLon0.15_PT102H.grib2 2026-04-28 04:29 1.0M
20260428T00Z_MSC_GDPS_WindDir_IsbL-0200_LatLon0.15_PT102H.grib2 2026-04-28 04:29 1.1M
20260428T00Z_MSC_GDPS_WindDir_IsbL-0225_LatLon0.15_PT102H.grib2 2026-04-28 04:29 1.1M
20260428T00Z_MSC_GDPS_WindDir_IsbL-0250_LatLon0.15_PT102H.grib2 2026-04-28 04:29 1.1M
20260428T00Z_MSC_GDPS_WindDir_IsbL-0275_LatLon0.15_PT102H.grib2 2026-04-28 04:29 1.2M
20260428T00Z_MSC_GDPS_WindDir_IsbL-0300_LatLon0.15_PT102H.grib2 2026-04-28 04:29 1.2M
20260428T00Z_MSC_GDPS_WindDir_IsbL-0350_LatLon0.15_PT102H.grib2 2026-04-28 04:29 1.2M
20260428T00Z_MSC_GDPS_WindDir_IsbL-0400_LatLon0.15_PT102H.grib2 2026-04-28 04:29 1.2M
20260428T00Z_MSC_GDPS_WindDir_IsbL-0450_LatLon0.15_PT102H.grib2 2026-04-28 04:29 1.3M
20260428T00Z_MSC_GDPS_WindDir_IsbL-0500_LatLon0.15_PT102H.grib2 2026-04-28 04:29 1.3M
20260428T00Z_MSC_GDPS_WindDir_IsbL-0550_LatLon0.15_PT102H.grib2 2026-04-28 04:29 1.4M
20260428T00Z_MSC_GDPS_WindDir_IsbL-0600_LatLon0.15_PT102H.grib2 2026-04-28 04:29 1.4M
20260428T00Z_MSC_GDPS_WindDir_IsbL-0650_LatLon0.15_PT102H.grib2 2026-04-28 04:29 1.5M
20260428T00Z_MSC_GDPS_WindDir_IsbL-0700_LatLon0.15_PT102H.grib2 2026-04-28 04:29 1.6M
20260428T00Z_MSC_GDPS_WindDir_IsbL-0750_LatLon0.15_PT102H.grib2 2026-04-28 04:29 1.7M
20260428T00Z_MSC_GDPS_WindDir_IsbL-0800_LatLon0.15_PT102H.grib2 2026-04-28 04:29 1.8M
20260428T00Z_MSC_GDPS_WindDir_IsbL-0850_LatLon0.15_PT102H.grib2 2026-04-28 04:29 1.9M
20260428T00Z_MSC_GDPS_WindDir_IsbL-0875_LatLon0.15_PT102H.grib2 2026-04-28 04:29 1.9M
20260428T00Z_MSC_GDPS_WindDir_IsbL-0900_LatLon0.15_PT102H.grib2 2026-04-28 04:29 2.0M
20260428T00Z_MSC_GDPS_WindDir_IsbL-0925_LatLon0.15_PT102H.grib2 2026-04-28 04:29 2.0M
20260428T00Z_MSC_GDPS_WindDir_IsbL-0950_LatLon0.15_PT102H.grib2 2026-04-28 04:29 1.9M
20260428T00Z_MSC_GDPS_WindDir_IsbL-0970_LatLon0.15_PT102H.grib2 2026-04-28 04:29 2.0M
20260428T00Z_MSC_GDPS_WindDir_IsbL-0985_LatLon0.15_PT102H.grib2 2026-04-28 04:29 2.0M
20260428T00Z_MSC_GDPS_WindDir_IsbL-1000_LatLon0.15_PT102H.grib2 2026-04-28 04:29 2.0M
20260428T00Z_MSC_GDPS_WindDir_IsbL-1015_LatLon0.15_PT102H.grib2 2026-04-28 04:29 2.0M
20260428T00Z_MSC_GDPS_WindGust-Max_AGL-10m_LatLon0.15_PT102H.grib2 2026-04-28 04:29 2.2M
20260428T00Z_MSC_GDPS_WindGust-Min_AGL-10m_LatLon0.15_PT102H.grib2 2026-04-28 04:29 2.2M
20260428T00Z_MSC_GDPS_WindGust_AGL-10m_LatLon0.15_PT102H.grib2 2026-04-28 04:29 2.1M
20260428T00Z_MSC_GDPS_WindSpeed_AGL-10m_LatLon0.15_PT102H.grib2 2026-04-28 04:29 1.1M
20260428T00Z_MSC_GDPS_WindSpeed_AGL-120m_LatLon0.15_PT102H.grib2 2026-04-28 04:29 1.2M
20260428T00Z_MSC_GDPS_WindSpeed_AGL-40m_LatLon0.15_PT102H.grib2 2026-04-28 04:29 1.2M
20260428T00Z_MSC_GDPS_WindSpeed_AGL-80m_LatLon0.15_PT102H.grib2 2026-04-28 04:29 1.2M
20260428T00Z_MSC_GDPS_WindSpeed_IsbL-0001_LatLon0.15_PT102H.grib2 2026-04-28 04:29 641K
20260428T00Z_MSC_GDPS_WindSpeed_IsbL-0005_LatLon0.15_PT102H.grib2 2026-04-28 04:29 689K
20260428T00Z_MSC_GDPS_WindSpeed_IsbL-0010_LatLon0.15_PT102H.grib2 2026-04-28 04:29 623K
20260428T00Z_MSC_GDPS_WindSpeed_IsbL-0020_LatLon0.15_PT102H.grib2 2026-04-28 04:29 849K
20260428T00Z_MSC_GDPS_WindSpeed_IsbL-0030_LatLon0.15_PT102H.grib2 2026-04-28 04:29 850K
20260428T00Z_MSC_GDPS_WindSpeed_IsbL-0050_LatLon0.15_PT102H.grib2 2026-04-28 04:29 893K
20260428T00Z_MSC_GDPS_WindSpeed_IsbL-0100_LatLon0.15_PT102H.grib2 2026-04-28 04:29 1.1M
20260428T00Z_MSC_GDPS_WindSpeed_IsbL-0150_LatLon0.15_PT102H.grib2 2026-04-28 04:29 936K
20260428T00Z_MSC_GDPS_WindSpeed_IsbL-0175_LatLon0.15_PT102H.grib2 2026-04-28 04:29 1.0M
20260428T00Z_MSC_GDPS_WindSpeed_IsbL-0200_LatLon0.15_PT102H.grib2 2026-04-28 04:29 1.0M
20260428T00Z_MSC_GDPS_WindSpeed_IsbL-0225_LatLon0.15_PT102H.grib2 2026-04-28 04:29 1.1M
20260428T00Z_MSC_GDPS_WindSpeed_IsbL-0250_LatLon0.15_PT102H.grib2 2026-04-28 04:29 1.1M
20260428T00Z_MSC_GDPS_WindSpeed_IsbL-0275_LatLon0.15_PT102H.grib2 2026-04-28 04:29 1.1M
20260428T00Z_MSC_GDPS_WindSpeed_IsbL-0300_LatLon0.15_PT102H.grib2 2026-04-28 04:29 1.1M
20260428T00Z_MSC_GDPS_WindSpeed_IsbL-0350_LatLon0.15_PT102H.grib2 2026-04-28 04:29 1.1M
20260428T00Z_MSC_GDPS_WindSpeed_IsbL-0400_LatLon0.15_PT102H.grib2 2026-04-28 04:29 1.1M
20260428T00Z_MSC_GDPS_WindSpeed_IsbL-0450_LatLon0.15_PT102H.grib2 2026-04-28 04:29 1.1M
20260428T00Z_MSC_GDPS_WindSpeed_IsbL-0500_LatLon0.15_PT102H.grib2 2026-04-28 04:29 1.1M
20260428T00Z_MSC_GDPS_WindSpeed_IsbL-0550_LatLon0.15_PT102H.grib2 2026-04-28 04:29 1.1M
20260428T00Z_MSC_GDPS_WindSpeed_IsbL-0600_LatLon0.15_PT102H.grib2 2026-04-28 04:29 1.4M
20260428T00Z_MSC_GDPS_WindSpeed_IsbL-0650_LatLon0.15_PT102H.grib2 2026-04-28 04:29 1.4M
20260428T00Z_MSC_GDPS_WindSpeed_IsbL-0700_LatLon0.15_PT102H.grib2 2026-04-28 04:29 1.5M
20260428T00Z_MSC_GDPS_WindSpeed_IsbL-0750_LatLon0.15_PT102H.grib2 2026-04-28 04:29 1.5M
20260428T00Z_MSC_GDPS_WindSpeed_IsbL-0800_LatLon0.15_PT102H.grib2 2026-04-28 04:29 1.6M
20260428T00Z_MSC_GDPS_WindSpeed_IsbL-0850_LatLon0.15_PT102H.grib2 2026-04-28 04:29 1.7M
20260428T00Z_MSC_GDPS_WindSpeed_IsbL-0875_LatLon0.15_PT102H.grib2 2026-04-28 04:29 1.8M
20260428T00Z_MSC_GDPS_WindSpeed_IsbL-0900_LatLon0.15_PT102H.grib2 2026-04-28 04:29 1.8M
20260428T00Z_MSC_GDPS_WindSpeed_IsbL-0925_LatLon0.15_PT102H.grib2 2026-04-28 04:29 1.8M
20260428T00Z_MSC_GDPS_WindSpeed_IsbL-0950_LatLon0.15_PT102H.grib2 2026-04-28 04:29 1.9M
20260428T00Z_MSC_GDPS_WindSpeed_IsbL-0970_LatLon0.15_PT102H.grib2 2026-04-28 04:29 1.9M
20260428T00Z_MSC_GDPS_WindSpeed_IsbL-0985_LatLon0.15_PT102H.grib2 2026-04-28 04:29 1.9M
20260428T00Z_MSC_GDPS_WindSpeed_IsbL-1000_LatLon0.15_PT102H.grib2 2026-04-28 04:29 1.9M
20260428T00Z_MSC_GDPS_WindSpeed_IsbL-1015_LatLon0.15_PT102H.grib2 2026-04-28 04:29 1.8M
20260428T00Z_MSC_GDPS_WindU_AGL-10m_LatLon0.15_PT102H.grib2 2026-04-28 04:29 1.3M
20260428T00Z_MSC_GDPS_WindU_AGL-120m_LatLon0.15_PT102H.grib2 2026-04-28 04:29 1.0M
20260428T00Z_MSC_GDPS_WindU_AGL-40m_LatLon0.15_PT102H.grib2 2026-04-28 04:29 963K
20260428T00Z_MSC_GDPS_WindU_AGL-80m_LatLon0.15_PT102H.grib2 2026-04-28 04:29 968K
20260428T00Z_MSC_GDPS_WindU_IsbL-0001_LatLon0.15_PT102H.grib2 2026-04-28 04:29 498K
20260428T00Z_MSC_GDPS_WindU_IsbL-0005_LatLon0.15_PT102H.grib2 2026-04-28 04:29 685K
20260428T00Z_MSC_GDPS_WindU_IsbL-0010_LatLon0.15_PT102H.grib2 2026-04-28 04:29 696K
20260428T00Z_MSC_GDPS_WindU_IsbL-0020_LatLon0.15_PT102H.grib2 2026-04-28 04:29 725K
20260428T00Z_MSC_GDPS_WindU_IsbL-0030_LatLon0.15_PT102H.grib2 2026-04-28 04:29 727K
20260428T00Z_MSC_GDPS_WindU_IsbL-0050_LatLon0.15_PT102H.grib2 2026-04-28 04:29 688K
20260428T00Z_MSC_GDPS_WindU_IsbL-0100_LatLon0.15_PT102H.grib2 2026-04-28 04:29 914K
20260428T00Z_MSC_GDPS_WindU_IsbL-0150_LatLon0.15_PT102H.grib2 2026-04-28 04:29 1.0M
20260428T00Z_MSC_GDPS_WindU_IsbL-0175_LatLon0.15_PT102H.grib2 2026-04-28 04:29 1.0M
20260428T00Z_MSC_GDPS_WindU_IsbL-0200_LatLon0.15_PT102H.grib2 2026-04-28 04:29 1.0M
20260428T00Z_MSC_GDPS_WindU_IsbL-0225_LatLon0.15_PT102H.grib2 2026-04-28 04:29 847K
20260428T00Z_MSC_GDPS_WindU_IsbL-0250_LatLon0.15_PT102H.grib2 2026-04-28 04:29 847K
20260428T00Z_MSC_GDPS_WindU_IsbL-0275_LatLon0.15_PT102H.grib2 2026-04-28 04:29 872K
20260428T00Z_MSC_GDPS_WindU_IsbL-0300_LatLon0.15_PT102H.grib2 2026-04-28 04:29 861K
20260428T00Z_MSC_GDPS_WindU_IsbL-0350_LatLon0.15_PT102H.grib2 2026-04-28 04:29 874K
20260428T00Z_MSC_GDPS_WindU_IsbL-0400_LatLon0.15_PT102H.grib2 2026-04-28 04:29 1.1M
20260428T00Z_MSC_GDPS_WindU_IsbL-0450_LatLon0.15_PT102H.grib2 2026-04-28 04:29 1.1M
20260428T00Z_MSC_GDPS_WindU_IsbL-0500_LatLon0.15_PT102H.grib2 2026-04-28 04:29 1.1M
20260428T00Z_MSC_GDPS_WindU_IsbL-0550_LatLon0.15_PT102H.grib2 2026-04-28 04:29 1.1M
20260428T00Z_MSC_GDPS_WindU_IsbL-0600_LatLon0.15_PT102H.grib2 2026-04-28 04:29 1.1M
20260428T00Z_MSC_GDPS_WindU_IsbL-0650_LatLon0.15_PT102H.grib2 2026-04-28 04:29 1.2M
20260428T00Z_MSC_GDPS_WindU_IsbL-0700_LatLon0.15_PT102H.grib2 2026-04-28 04:29 1.2M
20260428T00Z_MSC_GDPS_WindU_IsbL-0750_LatLon0.15_PT102H.grib2 2026-04-28 04:29 1.3M
20260428T00Z_MSC_GDPS_WindU_IsbL-0800_LatLon0.15_PT102H.grib2 2026-04-28 04:29 1.3M
20260428T00Z_MSC_GDPS_WindU_IsbL-0850_LatLon0.15_PT102H.grib2 2026-04-28 04:29 1.4M
20260428T00Z_MSC_GDPS_WindU_IsbL-0875_LatLon0.15_PT102H.grib2 2026-04-28 04:29 1.5M
20260428T00Z_MSC_GDPS_WindU_IsbL-0900_LatLon0.15_PT102H.grib2 2026-04-28 04:29 1.5M
20260428T00Z_MSC_GDPS_WindU_IsbL-0925_LatLon0.15_PT102H.grib2 2026-04-28 04:29 1.5M
20260428T00Z_MSC_GDPS_WindU_IsbL-0950_LatLon0.15_PT102H.grib2 2026-04-28 04:29 1.4M
20260428T00Z_MSC_GDPS_WindU_IsbL-0970_LatLon0.15_PT102H.grib2 2026-04-28 04:29 1.4M
20260428T00Z_MSC_GDPS_WindU_IsbL-0985_LatLon0.15_PT102H.grib2 2026-04-28 04:29 1.4M
20260428T00Z_MSC_GDPS_WindU_IsbL-1000_LatLon0.15_PT102H.grib2 2026-04-28 04:29 1.4M
20260428T00Z_MSC_GDPS_WindU_IsbL-1015_LatLon0.15_PT102H.grib2 2026-04-28 04:29 1.3M
20260428T00Z_MSC_GDPS_WindV_AGL-10m_LatLon0.15_PT102H.grib2 2026-04-28 04:29 1.6M
20260428T00Z_MSC_GDPS_WindV_AGL-120m_LatLon0.15_PT102H.grib2 2026-04-28 04:29 966K
20260428T00Z_MSC_GDPS_WindV_AGL-40m_LatLon0.15_PT102H.grib2 2026-04-28 04:29 960K
20260428T00Z_MSC_GDPS_WindV_AGL-80m_LatLon0.15_PT102H.grib2 2026-04-28 04:29 965K
20260428T00Z_MSC_GDPS_WindV_IsbL-0001_LatLon0.15_PT102H.grib2 2026-04-28 04:29 775K
20260428T00Z_MSC_GDPS_WindV_IsbL-0005_LatLon0.15_PT102H.grib2 2026-04-28 04:29 757K
20260428T00Z_MSC_GDPS_WindV_IsbL-0010_LatLon0.15_PT102H.grib2 2026-04-28 04:29 787K
20260428T00Z_MSC_GDPS_WindV_IsbL-0020_LatLon0.15_PT102H.grib2 2026-04-28 04:29 842K
20260428T00Z_MSC_GDPS_WindV_IsbL-0030_LatLon0.15_PT102H.grib2 2026-04-28 04:29 841K
20260428T00Z_MSC_GDPS_WindV_IsbL-0050_LatLon0.15_PT102H.grib2 2026-04-28 04:29 894K
20260428T00Z_MSC_GDPS_WindV_IsbL-0100_LatLon0.15_PT102H.grib2 2026-04-28 04:29 1.0M
20260428T00Z_MSC_GDPS_WindV_IsbL-0150_LatLon0.15_PT102H.grib2 2026-04-28 04:29 1.0M
20260428T00Z_MSC_GDPS_WindV_IsbL-0175_LatLon0.15_PT102H.grib2 2026-04-28 04:29 1.0M
20260428T00Z_MSC_GDPS_WindV_IsbL-0200_LatLon0.15_PT102H.grib2 2026-04-28 04:29 836K
20260428T00Z_MSC_GDPS_WindV_IsbL-0225_LatLon0.15_PT102H.grib2 2026-04-28 04:29 842K
20260428T00Z_MSC_GDPS_WindV_IsbL-0250_LatLon0.15_PT102H.grib2 2026-04-28 04:29 900K
20260428T00Z_MSC_GDPS_WindV_IsbL-0275_LatLon0.15_PT102H.grib2 2026-04-28 04:29 865K
20260428T00Z_MSC_GDPS_WindV_IsbL-0300_LatLon0.15_PT102H.grib2 2026-04-28 04:29 852K
20260428T00Z_MSC_GDPS_WindV_IsbL-0350_LatLon0.15_PT102H.grib2 2026-04-28 04:29 863K
20260428T00Z_MSC_GDPS_WindV_IsbL-0400_LatLon0.15_PT102H.grib2 2026-04-28 04:29 869K
20260428T00Z_MSC_GDPS_WindV_IsbL-0450_LatLon0.15_PT102H.grib2 2026-04-28 04:29 873K
20260428T00Z_MSC_GDPS_WindV_IsbL-0500_LatLon0.15_PT102H.grib2 2026-04-28 04:29 1.1M
20260428T00Z_MSC_GDPS_WindV_IsbL-0550_LatLon0.15_PT102H.grib2 2026-04-28 04:29 1.1M
20260428T00Z_MSC_GDPS_WindV_IsbL-0600_LatLon0.15_PT102H.grib2 2026-04-28 04:29 1.1M
20260428T00Z_MSC_GDPS_WindV_IsbL-0650_LatLon0.15_PT102H.grib2 2026-04-28 04:29 1.2M
20260428T00Z_MSC_GDPS_WindV_IsbL-0700_LatLon0.15_PT102H.grib2 2026-04-28 04:29 1.2M
20260428T00Z_MSC_GDPS_WindV_IsbL-0750_LatLon0.15_PT102H.grib2 2026-04-28 04:29 1.3M
20260428T00Z_MSC_GDPS_WindV_IsbL-0800_LatLon0.15_PT102H.grib2 2026-04-28 04:29 1.3M
20260428T00Z_MSC_GDPS_WindV_IsbL-0850_LatLon0.15_PT102H.grib2 2026-04-28 04:29 1.4M
20260428T00Z_MSC_GDPS_WindV_IsbL-0875_LatLon0.15_PT102H.grib2 2026-04-28 04:29 1.4M
20260428T00Z_MSC_GDPS_WindV_IsbL-0900_LatLon0.15_PT102H.grib2 2026-04-28 04:29 1.4M
20260428T00Z_MSC_GDPS_WindV_IsbL-0925_LatLon0.15_PT102H.grib2 2026-04-28 04:29 1.4M
20260428T00Z_MSC_GDPS_WindV_IsbL-0950_LatLon0.15_PT102H.grib2 2026-04-28 04:29 1.4M
20260428T00Z_MSC_GDPS_WindV_IsbL-0970_LatLon0.15_PT102H.grib2 2026-04-28 04:29 1.4M
20260428T00Z_MSC_GDPS_WindV_IsbL-0985_LatLon0.15_PT102H.grib2 2026-04-28 04:29 1.4M
20260428T00Z_MSC_GDPS_WindV_IsbL-1000_LatLon0.15_PT102H.grib2 2026-04-28 04:29 1.7M
20260428T00Z_MSC_GDPS_WindV_IsbL-1015_LatLon0.15_PT102H.grib2 2026-04-28 04:29 1.6M